sat.trackr.live / text

‹ back to catalog

STARLINK-35280

NORAD 66025 · 2025-232W

PAYLOAD ACTIVE UNKNOWN

§ Identity

Operator
Country
US
Launch date
2025-10-16
Launch site
AFETR
Launch vehicle
Mass (kg)
RCS (m²)

Purposes: comms

External: N2YO · Heavens-Above · Gunter

§ Orbital elements

Epoch: 2026-09-19T18:02:34.400256Z

Period
93.85 min
Inclination
53.1590°
Eccentricity
0.0001126
Mean motion
15.34393914 rev/d
Perigee alt
462.0 km
Apogee alt
463.5 km
Semi-major
6,840.9 km
B*
3.6189e-4
RAAN
281.3510°
Arg perigee
89.1897°
Mean anomaly
270.9234°
Rev number
5,316

§ Raw data

STARLINK-352801 66025U 25232W   26262.75178704  .00011868  00000+0  36189-3 0  99932 66025  53.1590 281.3510 0001126  89.1897 270.9234 15.34393914 53160

JSON: /api/v1/satellites/66025 · /tle

For live sub-satellite position, see the globe view (requires WebGL).

§ Visibility from observer

Set your observer location to see the next 7 days of passes ≥ 10°. The values pass through the URL so the page stays shareable.

No JS? Fill the form by hand. The geolocation button needs JavaScript.